Weather History for K1F0 - October, 2013

Change the Weather History Date:

Saturday, October 26, 2013

  Actual Average (KADM) Record (KADM)
Temperature  
Mean Temperature 55 °F -  
Max Temperature 60 °F 69 °F 87 °F (2014)
Min Temperature 50 °F 52 °F 33 °F (2007)
Degree Days  
Heating Degree Days 10    
Growing Degree Days 5 (Base 50)    
Moisture  
Dew Point 51 °F    
Average Humidity 87    
Maximum Humidity 100    
Minimum Humidity 71    
Precipitation  
Precipitation 0.73 in - - ()
Sea Level Pressure  
Sea Level Pressure 30.16 in    
Wind  
Wind Speed 3 mph (SE)    
Max Wind Speed 8 mph    
Max Gust Speed 10 mph    
Visibility 8 miles    
Events Rain , Thunderstorm    
Averages and records for this station are not official NWS values.
T = Trace of Precipitation, MM = Missing Value Source: NWS Daily Summary

Daily Weather History Graph

Daily Weather History Graph

Search for Another Location

Airport or City:

Trip Planner

Search our weather history database for the weather conditions in past years. The results will help you decide how hot, cold, wet, or windy it might be!

Date:

Astronomy

Oct. 26, 2013 Rise Set
Actual Time 7:43 AM CDT 6:41 PM CDT
Civil Twilight 7:17 AM CDT 7:06 PM CDT
Nautical Twilight 6:48 AM CDT 7:36 PM CDT
Astronomical Twilight 6:18 AM CDT 8:05 PM CDT
Moon 12:06 AM CDT (10/26) 1:57 PM CDT (10/26)
Length of Visible Light 11h 49m
Length of Day
10h 58m
Waning Gibbous, 53% of the Moon is Illuminated
Oct 26
Waning Gibbous
Oct 26
Last Quarter
Nov 3
New
Nov 9
First Quarter
Nov 17
Full

Hourly Weather History & Observations

Time (CDT) Temp. Dew Point Humidity Pressure Visibility Wind Dir Wind Speed Gust Speed Precip Events Conditions
12:15 AM 51.8 °F 42.8 °F 71% 30.25 in 10.0 mi Calm Calm - N/A   Clear
12:35 AM 51.8 °F 42.8 °F 71% 30.23 in 10.0 mi SSE 3.5 mph - N/A   Clear
12:55 AM 51.8 °F 42.8 °F 71% 30.23 in 10.0 mi Calm Calm - N/A   Clear
1:15 AM 51.8 °F 42.8 °F 71% 30.23 in 10.0 mi SE 3.5 mph - N/A   Clear
1:35 AM 51.8 °F 42.8 °F 71% 30.23 in 10.0 mi SE 3.5 mph - N/A   Clear
1:55 AM 51.8 °F 42.8 °F 71% 30.22 in 10.0 mi SE 3.5 mph - N/A   Clear
2:15 AM 51.8 °F 42.8 °F 71% 30.22 in 10.0 mi SE 3.5 mph - N/A   Clear
2:35 AM 51.8 °F 42.8 °F 71% 30.22 in 10.0 mi SE 3.5 mph - N/A   Clear
2:55 AM 51.8 °F 42.8 °F 71% 30.22 in 10.0 mi SE 3.5 mph - N/A   Scattered Clouds
3:15 AM 51.8 °F 42.8 °F 71% 30.21 in 10.0 mi SSE 4.6 mph - N/A   Scattered Clouds
3:35 AM 51.8 °F 42.8 °F 71% 30.20 in 10.0 mi SSE 4.6 mph - N/A   Clear
3:55 AM 51.8 °F 42.8 °F 71% 30.20 in 10.0 mi SE 3.5 mph - N/A   Clear
4:15 AM 50.0 °F 42.8 °F 76% 30.21 in 10.0 mi Calm Calm - N/A   Scattered Clouds
4:35 AM 50.0 °F 44.6 °F 82% 30.21 in 10.0 mi Calm Calm - N/A   Mostly Cloudy
4:55 AM 50.0 °F 44.6 °F 82% 30.20 in 10.0 mi SE 3.5 mph - N/A   Overcast
5:15 AM 50.0 °F 44.6 °F 82% 30.20 in 10.0 mi SE 4.6 mph - N/A   Overcast
5:35 AM 50.0 °F 44.6 °F 82% 30.20 in 10.0 mi Calm Calm - N/A   Overcast
5:55 AM 51.8 °F 44.6 °F 76% 30.20 in 10.0 mi SE 4.6 mph - N/A   Overcast
6:15 AM 51.8 °F 44.6 °F 76% 30.20 in 10.0 mi SE 3.5 mph - N/A   Overcast
6:35 AM 51.8 °F 44.6 °F 76% 30.20 in 10.0 mi Calm Calm - N/A   Overcast
6:55 AM 51.8 °F 44.6 °F 76% 30.19 in 10.0 mi SSE 4.6 mph - N/A   Overcast
7:15 AM 51.8 °F 44.6 °F 76% 30.19 in 10.0 mi SSE 4.6 mph - N/A   Mostly Cloudy
7:35 AM 51.8 °F 46.4 °F 82% 30.19 in 10.0 mi SSE 4.6 mph - N/A   Scattered Clouds
7:55 AM 51.8 °F 46.4 °F 82% 30.19 in 10.0 mi SSE 3.5 mph - N/A   Overcast
8:15 AM 51.8 °F 46.4 °F 82% 30.19 in 10.0 mi SE 3.5 mph - N/A Thunderstorm Mostly Cloudy
8:35 AM 53.6 °F 46.4 °F 77% 30.19 in 10.0 mi South 3.5 mph - N/A Thunderstorm Overcast
8:55 AM 53.6 °F 48.2 °F 82% 30.19 in 10.0 mi South 3.5 mph - N/A Thunderstorm Mostly Cloudy
9:15 AM 55.4 °F 50.0 °F 82% 30.19 in 10.0 mi South 5.8 mph - N/A Thunderstorm Mostly Cloudy
9:35 AM 55.4 °F 50.0 °F 82% 30.19 in 10.0 mi South 5.8 mph - N/A   Mostly Cloudy
9:55 AM 57.2 °F 50.0 °F 77% 30.20 in 10.0 mi South 5.8 mph - N/A Thunderstorm Thunderstorm
10:15 AM 57.2 °F 50.0 °F 77% 30.20 in 10.0 mi South 5.8 mph - N/A Thunderstorm Unknown
10:35 AM 59.0 °F 53.6 °F 82% 30.19 in 10.0 mi South 5.8 mph - N/A Rain Light Rain
10:55 AM 59.0 °F 53.6 °F 82% 30.19 in 10.0 mi South 5.8 mph - N/A   Overcast
11:15 AM 60.8 °F 53.6 °F 77% 30.18 in 10.0 mi South 4.6 mph - N/A   Mostly Cloudy
11:35 AM 59.0 °F 53.6 °F 82% 30.18 in 10.0 mi South 5.8 mph - N/A Rain , Thunderstorm Light Thunderstorms and Rain
11:55 AM 59.0 °F 55.4 °F 88% 30.17 in 7.0 mi SSE 5.8 mph - 0.01 in Rain Light Rain
12:15 PM 57.2 °F 55.4 °F 94% 30.17 in 4.0 mi SSE 4.6 mph - 0.03 in Rain , Thunderstorm Thunderstorms and Rain
12:35 PM 55.4 °F 55.4 °F 100% 30.15 in 2.5 mi SE 4.6 mph - 0.23 in Rain , Thunderstorm Heavy Thunderstorms and Rain
12:55 PM 57.2 °F 55.4 °F 94% 30.15 in 7.0 mi SE 4.6 mph - 0.23 in Thunderstorm Thunderstorm
1:15 PM 59.0 °F 57.2 °F 94% 30.15 in 5.0 mi Calm Calm - 0.01 in Rain , Thunderstorm Light Thunderstorms and Rain
1:35 PM 59.0 °F 57.2 °F 94% 30.14 in 4.0 mi NE 5.8 mph - 0.05 in Rain , Thunderstorm Rain
1:55 PM 60.8 °F 59.0 °F 94% 30.12 in 5.0 mi ENE 5.8 mph - 0.05 in Thunderstorm Overcast
2:15 PM 60.8 °F 59.0 °F 94% 30.11 in 7.0 mi East 4.6 mph - N/A Thunderstorm Overcast
2:35 PM 60.8 °F 59.0 °F 94% 30.10 in 7.0 mi East 6.9 mph - N/A Thunderstorm Thunderstorm
2:55 PM 60.8 °F 59.0 °F 94% 30.11 in 5.0 mi ENE 6.9 mph - N/A Rain , Thunderstorm Light Thunderstorms and Rain
3:15 PM 59.0 °F 57.2 °F 94% 30.09 in 3.0 mi East 6.9 mph - N/A Rain , Thunderstorm Light Thunderstorms and Rain
3:35 PM 59.0 °F 57.2 °F 94% 30.09 in 4.0 mi ENE 8.1 mph - N/A Rain , Thunderstorm Light Thunderstorms and Rain
4:15 PM 55.4 °F 55.4 °F 100% 30.07 in 2.5 mi SSE 4.6 mph - 0.37 in Rain , Thunderstorm Thunderstorms and Rain
4:35 PM 57.2 °F 55.4 °F 94% 30.08 in 4.0 mi SE 3.5 mph - 0.40 in Rain , Thunderstorm Light Thunderstorms and Rain
4:55 PM 55.4 °F 55.4 °F 100% 30.08 in 7.0 mi East 6.9 mph 10.4 mph 0.42 in Rain , Thunderstorm Light Thunderstorms and Rain
5:15 PM 55.4 °F 55.4 °F 100% 30.08 in 7.0 mi East 5.8 mph - 0.01 in Rain , Thunderstorm Light Thunderstorms and Rain
5:35 PM 55.4 °F 53.6 °F 94% 30.07 in 7.0 mi ENE 6.9 mph - 0.01 in   Overcast
5:55 PM 55.4 °F 53.6 °F 94% 30.07 in 10.0 mi ESE 8.1 mph - 0.01 in   Overcast
6:15 PM 55.4 °F 53.6 °F 94% 30.07 in 10.0 mi East 5.8 mph - N/A   Overcast
6:35 PM 53.6 °F 53.6 °F 100% 30.08 in 10.0 mi East 3.5 mph - N/A   Mostly Cloudy
6:55 PM 53.6 °F 53.6 °F 100% 30.09 in 10.0 mi East 3.5 mph - N/A   Scattered Clouds
7:15 PM 53.6 °F 53.6 °F 100% 30.10 in 10.0 mi East 3.5 mph - N/A   Scattered Clouds
7:35 PM 53.6 °F 53.6 °F 100% 30.11 in 7.0 mi Calm Calm - N/A   Overcast
7:55 PM 53.6 °F 53.6 °F 100% 30.12 in 7.0 mi Calm Calm - N/A   Overcast
8:15 PM 53.6 °F 53.6 °F 100% 30.09 in 5.0 mi East 4.6 mph - N/A Rain Light Rain
8:35 PM 53.6 °F 53.6 °F 100% 30.09 in 4.0 mi Calm Calm - 0.01 in   Mostly Cloudy
8:55 PM 53.6 °F 53.6 °F 100% 30.10 in 5.0 mi Calm Calm - 0.01 in   Scattered Clouds
9:15 PM 53.6 °F 53.6 °F 100% 30.10 in 5.0 mi Calm Calm - N/A   Mostly Cloudy
9:35 PM 55.4 °F 53.6 °F 94% 30.12 in 4.0 mi NNE 3.5 mph - N/A   Overcast
9:55 PM 55.4 °F 53.6 °F 94% 30.13 in 4.0 mi Calm Calm - N/A   Overcast
10:15 PM 55.4 °F 53.6 °F 94% 30.12 in 4.0 mi NE 4.6 mph - N/A   Overcast
10:35 PM 55.4 °F 53.6 °F 94% 30.13 in 4.0 mi North 3.5 mph - N/A   Overcast
10:55 PM 55.4 °F 53.6 °F 94% 30.13 in 4.0 mi NNE 3.5 mph - N/A   Overcast
11:15 PM 55.4 °F 53.6 °F 94% 30.14 in 5.0 mi NE 4.6 mph - N/A   Overcast
11:35 PM 55.4 °F 55.4 °F 100% 30.13 in 5.0 mi Calm Calm - N/A   Overcast
11:55 PM 55.4 °F 55.4 °F 100% 30.12 in 5.0 mi Calm Calm - N/A   Overcast